C/2010 H1 ( Garradd )

Japanese version
Home page
Updated on September 15, 2022

---------------------------------------------------------------------

* Profile

Discovery Date April 16, 2010
Magnitude 18.6 mag
Discoverer G. J. Garradd (Siding Spring Survey)

* Orbital Elements

Epoch 2010 June 13.0 TT = JDT 2455360.5
T 2010 June 18.89948 TT                                 MPC
q   2.7455428            (2000.0)            P               Q
z  +0.0001362      Peri.  233.82008     -0.71773079     +0.68407490
 +/-0.0000068      Node   347.38398     -0.27127560     -0.44666466
e   0.9996260      Incl.   36.53154     -0.64130496     -0.57665607
From 40 observations 2010 Feb. 19-July 2, mean residual 0".6.

* Magnitudes Graph

        m1 = 12.5 + 5 log d + 10.0 log r

---------------------------------------------------------------------

The orbital elements are published on M.P.E.C. 2013-B90.
The magnitudes graphs are made with Comet for Windows.

---------------------------------------------------------------------

Copyright(C) Seiichi Yoshida (comet@aerith.net). All rights reserved.